Weather History for KFRG - March, 2013

Change the Weather History Date:

Friday, March 8, 2013

  Actual Average Record
Temperature  
Mean Temperature 36 °F -  
Max Temperature 41 °F 42 °F 63 °F (2009)
Min Temperature 30 °F 28 °F 16 °F (2007)
Degree Days  
Heating Degree Days 30    
Moisture  
Dew Point 30 °F    
Average Humidity 88    
Maximum Humidity 100    
Minimum Humidity 51    
Precipitation  
Precipitation 0.05 in - - ()
Sea Level Pressure  
Sea Level Pressure 30.01 in    
Wind  
Wind Speed 13 mph (NNW)    
Max Wind Speed 17 mph    
Max Gust Speed 26 mph    
Visibility 3 miles    
Events Fog , Rain , Snow    
Averages and records for this station are not official NWS values.
T = Trace of Precipitation, MM = Missing Value Source: NWS Daily Summary

Daily Weather History Graph

Daily Weather History Graph

Search for Another Location

Airport or City:

Trip Planner

Search our weather history database for the weather conditions in past years. The results will help you decide how hot, cold, wet, or windy it might be!

Date:

Astronomy

Mar. 08, 2013 Rise Set
Actual Time 6:16 AM EST 5:53 PM EST
Civil Twilight 5:48 AM EST 6:20 PM EST
Nautical Twilight 5:17 AM EST 6:52 PM EST
Astronomical Twilight 4:45 AM EST 7:24 PM EST
Moon 3:59 AM EST (3/8) 2:44 PM EST (3/8)
Length of Visible Light 12h 31m
Length of Day
11h 36m
Waning Crescent, 12% of the Moon is Illuminated
Mar 8
Waning Crescent
Mar 11
New
Mar 19
First Quarter
Mar 27
Full
Apr 3
Last Quarter

Hourly Weather History & Observations

Time (EST) Temp. Windchill Dew Point Humidity Pressure Visibility Wind Dir Wind Speed Gust Speed Precip Events Conditions
12:03 AM 33.8 °F 24.8 °F 30.2 °F 87% 30.01 in 2.0 mi NNW 12.7 mph - 0.00 in Snow Light Snow
12:16 AM 33.8 °F 25.3 °F 30.2 °F 87% 30.01 in 3.0 mi North 11.5 mph 21.9 mph 0.00 in Snow Light Snow
12:37 AM 33.8 °F 24.3 °F 30.2 °F 87% 30.01 in 2.0 mi NNW 13.8 mph 21.9 mph 0.00 in Snow Light Snow
12:40 AM 33.8 °F 24.3 °F 30.2 °F 87% 30.01 in 1.8 mi NNW 13.8 mph 21.9 mph 0.00 in Snow Light Snow
12:53 AM 33.1 °F 23.9 °F 30.9 °F 92% 30.01 in 1.8 mi NNW 12.7 mph 21.9 mph 0.00 in Snow Light Snow
1:27 AM 32.0 °F 21.2 °F 30.2 °F 93% 30.01 in 1.0 mi NNW 16.1 mph 26.5 mph 0.00 in Snow Light Snow
1:53 AM 32.0 °F 22.5 °F 30.9 °F 96% 30.00 in 1.2 mi NNW 12.7 mph 24.2 mph 0.00 in Snow Light Snow
2:00 AM 32.0 °F 22.5 °F 30.2 °F 93% 30.00 in 1.8 mi NNW 12.7 mph 21.9 mph 0.00 in Snow Light Snow
2:10 AM 32.0 °F 23.0 °F 30.2 °F 93% 29.99 in 1.8 mi NNW 11.5 mph 20.7 mph 0.00 in Snow Light Snow
2:36 AM 32.0 °F 21.6 °F 30.2 °F 93% 29.98 in 2.5 mi NNW 15.0 mph 25.3 mph 0.00 in Snow Light Snow
2:50 AM 32.0 °F 22.1 °F 30.2 °F 93% 29.98 in 1.5 mi NNW 13.8 mph 21.9 mph 0.00 in Snow Light Snow
2:53 AM 32.0 °F 22.1 °F 30.0 °F 92% 29.98 in 1.5 mi NNW 13.8 mph - 0.00 in Snow Light Snow
3:08 AM 32.0 °F 22.1 °F 30.2 °F 93% 29.97 in 1.8 mi NNW 13.8 mph 25.3 mph 0.00 in Snow Light Snow
3:53 AM 32.0 °F 22.5 °F 30.0 °F 92% 29.98 in 1.0 mi North 12.7 mph 23.0 mph 0.01 in Snow Light Snow
4:06 AM 30.2 °F 21.3 °F 30.2 °F 100% 29.98 in 1.0 mi North 10.4 mph 20.7 mph 0.00 in Snow Light Snow
4:13 AM 30.2 °F 19.8 °F 30.2 °F 100% 29.98 in 1.0 mi North 13.8 mph - 0.00 in Snow Light Snow
4:28 AM 30.2 °F 21.3 °F 30.2 °F 100% 29.98 in 0.8 mi North 10.4 mph 19.6 mph 0.00 in Snow Light Snow
4:51 AM 30.2 °F 19.8 °F 28.4 °F 93% 29.97 in 1.2 mi NNW 13.8 mph 21.9 mph 0.01 in Snow Light Snow
4:53 AM 30.9 °F 19.4 °F 28.9 °F 92% 29.98 in 1.2 mi NNW 17.3 mph 24.2 mph 0.01 in Snow Light Snow
5:00 AM 30.2 °F 19.8 °F 28.4 °F 93% 29.97 in 2.0 mi NNW 13.8 mph 24.2 mph 0.00 in Snow Light Snow
5:07 AM 30.2 °F 20.2 °F 28.4 °F 93% 29.97 in 3.0 mi North 12.7 mph 24.2 mph 0.00 in Snow Light Snow
5:50 AM 30.2 °F 20.8 °F 28.4 °F 93% 29.98 in 2.0 mi North 11.5 mph 19.6 mph 0.00 in Snow Light Snow
5:53 AM 30.9 °F 21.7 °F 28.9 °F 92% 29.98 in 1.8 mi North 11.5 mph 19.6 mph 0.00 in Snow Light Snow
6:04 AM 30.2 °F 19.8 °F 28.4 °F 93% 29.97 in 2.0 mi North 13.8 mph 21.9 mph 0.00 in Snow Light Snow
6:16 AM 30.2 °F 21.3 °F 28.4 °F 93% 29.97 in 1.8 mi North 10.4 mph 20.7 mph 0.00 in Snow Light Snow
6:30 AM 30.2 °F 19.8 °F 28.4 °F 93% 29.97 in 1.0 mi North 13.8 mph 20.7 mph 0.00 in Snow Light Snow
6:37 AM 30.2 °F 20.8 °F 28.4 °F 93% 29.97 in 0.8 mi North 11.5 mph 19.6 mph 0.00 in Snow Light Snow
6:53 AM 30.9 °F 21.7 °F 28.9 °F 92% 29.98 in 0.5 mi North 11.5 mph 19.6 mph 0.00 in Fog , Snow Snow
7:53 AM 30.9 °F 20.7 °F 28.9 °F 92% 29.98 in 0.5 mi North 13.8 mph 19.6 mph 0.00 in Fog , Snow Snow
8:00 AM 30.2 °F 19.8 °F 28.4 °F 93% 29.98 in 0.8 mi North 13.8 mph 20.7 mph 0.00 in Snow Light Snow
8:07 AM 30.2 °F 19.8 °F 28.4 °F 93% 29.98 in 0.8 mi North 13.8 mph 20.7 mph 0.00 in Snow Light Snow
8:12 AM 30.2 °F 18.9 °F 28.4 °F 93% 29.98 in 1.0 mi North 16.1 mph 21.9 mph 0.00 in Snow Light Snow
8:22 AM 30.2 °F 19.3 °F 28.4 °F 93% 29.98 in 0.8 mi North 15.0 mph 21.9 mph 0.00 in Snow Light Snow
8:33 AM 30.2 °F 19.8 °F 28.4 °F 93% 29.98 in 0.8 mi NNW 13.8 mph 21.9 mph 0.00 in Snow Light Snow
8:42 AM 30.2 °F 20.2 °F 28.4 °F 93% 29.98 in 1.0 mi North 12.7 mph 21.9 mph 0.00 in Snow Light Snow
8:53 AM 32.0 °F 23.0 °F 28.9 °F 88% 29.99 in 1.0 mi North 11.5 mph 23.0 mph 0.00 in Snow Light Snow
9:21 AM 32.0 °F 21.2 °F 28.4 °F 87% 29.99 in 1.0 mi NNW 16.1 mph 21.9 mph 0.00 in Snow Light Snow
9:28 AM 32.0 °F 22.1 °F 28.4 °F 87% 29.99 in 1.0 mi North 13.8 mph 24.2 mph 0.00 in Snow Light Snow
9:44 AM 32.0 °F 22.5 °F 28.4 °F 87% 29.99 in 1.0 mi North 12.7 mph 24.2 mph 0.00 in Snow Light Snow
9:53 AM 32.0 °F 21.6 °F 28.9 °F 88% 29.99 in 1.2 mi North 15.0 mph 20.7 mph 0.00 in Snow Light Snow
10:06 AM 32.0 °F 22.1 °F 30.2 °F 93% 29.99 in 1.8 mi NNW 13.8 mph 20.7 mph 0.00 in Snow Light Snow
10:08 AM 32.0 °F 20.8 °F 30.2 °F 93% 29.99 in 1.8 mi North 17.3 mph 23.0 mph 0.00 in Snow Light Snow
10:18 AM 33.8 °F 25.3 °F 28.4 °F 81% 29.99 in 2.0 mi NNW 11.5 mph 21.9 mph 0.00 in Snow Light Snow
10:31 AM 33.8 °F 24.3 °F 28.4 °F 81% 29.99 in 1.8 mi North 13.8 mph 21.9 mph 0.00 in Snow Light Snow
10:50 AM 33.8 °F 24.3 °F 30.2 °F 87% 29.99 in 2.5 mi North 13.8 mph 24.2 mph 0.00 in Snow Light Snow
10:53 AM 33.1 °F 22.6 °F 30.0 °F 89% 30.00 in 2.5 mi North 16.1 mph 24.2 mph 0.00 in Snow Light Snow
10:57 AM 33.8 °F 24.3 °F 28.4 °F 81% 29.99 in 3.0 mi North 13.8 mph 24.2 mph 0.00 in Snow Light Snow
11:17 AM 33.8 °F 24.3 °F 30.2 °F 87% 30.00 in 2.5 mi North 13.8 mph 24.2 mph 0.00 in Snow Light Snow
11:44 AM 33.8 °F 25.8 °F 30.2 °F 87% 30.00 in 1.8 mi North 10.4 mph 23.0 mph 0.00 in Snow Light Snow
11:53 AM 34.0 °F 25.0 °F 30.0 °F 85% 30.00 in 1.2 mi NNW 12.7 mph 24.2 mph 0.00 in Snow Light Snow
12:23 PM 33.8 °F 23.9 °F 30.2 °F 87% 30.00 in 0.8 mi North 15.0 mph 23.0 mph 0.00 in Snow Light Snow
12:34 PM 33.8 °F 23.9 °F 30.2 °F 87% 30.00 in 1.0 mi NNW 15.0 mph 21.9 mph 0.00 in Snow Light Snow
12:53 PM 33.1 °F 24.4 °F 30.9 °F 92% 30.00 in 0.5 mi North 11.5 mph 19.6 mph 0.00 in Fog , Snow Snow
1:22 PM 33.8 °F 25.3 °F 32.0 °F 93% 30.00 in 1.5 mi North 11.5 mph - 0.00 in Snow Light Snow
1:35 PM 33.8 °F 24.8 °F 30.2 °F 87% 30.00 in 0.8 mi North 12.7 mph 18.4 mph 0.01 in Snow Light Snow
1:48 PM 33.8 °F 25.3 °F 30.2 °F 87% 30.00 in 0.8 mi North 11.5 mph 19.6 mph 0.01 in Snow Light Snow
1:53 PM 33.1 °F 23.9 °F 30.9 °F 92% 30.01 in 0.8 mi North 12.7 mph 19.6 mph 0.01 in Snow Light Snow
1:59 PM 33.8 °F 24.3 °F 30.2 °F 87% 30.00 in 1.0 mi North 13.8 mph 19.6 mph 0.00 in Snow Light Snow
2:09 PM 33.8 °F 25.3 °F 30.2 °F 87% 30.00 in 2.0 mi North 11.5 mph 18.4 mph 0.00 in Snow Light Snow
2:12 PM 33.8 °F 25.3 °F 30.2 °F 87% 30.00 in 2.0 mi North 11.5 mph - 0.00 in Snow Light Snow
2:28 PM 33.8 °F 26.4 °F 32.0 °F 93% 30.00 in 1.8 mi North 9.2 mph 20.7 mph 0.00 in Snow Light Snow
2:36 PM 33.8 °F 25.3 °F 32.0 °F 93% 30.01 in 2.0 mi North 11.5 mph - 0.01 in Snow Light Snow
2:53 PM 35.1 °F 28.6 °F 32.0 °F 89% 30.01 in 4.0 mi North 8.1 mph - 0.01 in Snow Light Snow
3:53 PM 35.1 °F 28.6 °F 33.1 °F 92% 30.03 in 5.0 mi North 8.1 mph - 0.00 in   Overcast
4:24 PM 33.8 °F 26.4 °F 32.0 °F 93% 30.03 in 4.0 mi North 9.2 mph - 0.01 in Snow Light Snow
4:29 PM 33.8 °F 26.4 °F 32.0 °F 93% 30.04 in 5.0 mi North 9.2 mph - 0.01 in Snow Light Snow
4:45 PM 35.6 °F 28.0 °F 33.8 °F 93% 30.04 in 9.0 mi North 10.4 mph - 0.01 in Rain Light Freezing Rain
4:53 PM 35.1 °F 28.6 °F 33.1 °F 92% 30.05 in 9.0 mi North 8.1 mph - 0.01 in Rain Light Freezing Rain
5:16 PM 37.4 °F 32.8 °F 33.8 °F 87% 30.05 in 10.0 mi NNW 5.8 mph - 0.00 in   Overcast
5:53 PM 37.9 °F 32.1 °F 30.0 °F 73% 30.08 in 10.0 mi North 8.1 mph - 0.00 in   Overcast
6:53 PM 39.0 °F 34.0 °F 28.9 °F 67% 30.12 in 10.0 mi North 6.9 mph - 0.00 in   Overcast
7:53 PM 39.9 °F 33.4 °F 26.1 °F 58% 30.13 in 10.0 mi North 10.4 mph - 0.00 in   Overcast
8:53 PM 39.9 °F 33.4 °F 26.1 °F 58% 30.13 in 10.0 mi North 10.4 mph - N/A   Scattered Clouds
9:53 PM 41.0 °F 33.1 °F 24.1 °F 51% 30.14 in 10.0 mi North 15.0 mph 21.9 mph N/A   Clear
10:53 PM 39.9 °F 32.9 °F 25.0 °F 55% 30.14 in 10.0 mi North 11.5 mph 18.4 mph N/A   Scattered Clouds
11:53 PM 39.0 °F 32.3 °F 25.0 °F 57% 30.14 in 10.0 mi North 10.4 mph - N/A   Clear